| time (UTC) | temp F | wind direction | speed knots | gust knots | rain 1hr in | rain 24hr in | rain mn in | humidity % | barometer mb |
| 20260507165519 | 63 | 329 | 0.9 | 1.7 | 0.00 | 0.00 | 0.00 | 91 | 1017.6 |
| 20260507164521 | 63 | 8 | 0.0 | 1.7 | 0.00 | 0.00 | 0.00 | 91 | 1017.5 |
| 20260507163537 | 63 | 359 | 0.9 | 3.5 | 0.00 | 0.00 | 0.00 | 91 | 1017.7 |
| 20260507162517 | 63 | 11 | 1.7 | 4.3 | 0.00 | 0.00 | 0.00 | 92 | 1017.7 |
| 20260507161540 | 63 | 356 | 2.6 | 5.2 | 0.00 | 0.00 | 0.00 | 92 | 1017.9 |
| 20260507160521 | 63 | 5 | 1.7 | 4.3 | 0.00 | 0.00 | 0.00 | 93 | 1018.0 |
| 20260507155517 | 62 | 357 | 1.7 | 6.1 | 0.00 | 0.00 | 0.00 | 93 | 1018.2 |
| 20260507154519 | 62 | 356 | 1.7 | 3.5 | 0.00 | 0.00 | 0.00 | 93 | 1018.2 |
| 20260507153518 | 62 | 4 | 1.7 | 5.2 | 0.00 | 0.00 | 0.00 | 94 | 1018.3 |
| 20260507152518 | 61 | 355 | 1.7 | 3.5 | 0.00 | 0.00 | 0.00 | 94 | 1018.4 |
| 20260507151521 | 60 | 355 | 0.9 | 3.5 | 0.00 | 0.00 | 0.00 | 94 | 1018.5 |
| 20260507150539 | 59 | 198 | 0.0 | 1.7 | 0.00 | 0.00 | 0.00 | 94 | 1018.6 |
| 20260507145518 | 58 | 273 | 0.0 | 1.7 | 0.00 | 0.00 | 0.00 | 93 | 1018.6 |
| 20260507144518 | 58 | 205 | 0.0 | 2.6 | 0.00 | 0.00 | 0.00 | 93 | 1018.9 |
| 20260507143518 | 58 | 189 | 0.0 | 2.6 | 0.00 | 0.00 | 0.00 | 93 | 1019.0 |
| 20260507142539 | 58 | 192 | 0.9 | 2.6 | 0.00 | 0.00 | 0.00 | 93 | 1019.3 |
| 20260507141519 | 58 | 193 | 1.7 | 3.5 | 0.00 | 0.00 | 0.00 | 93 | 1019.4 |
| 20260507140518 | 58 | 201 | 0.9 | 3.5 | 0.00 | 0.00 | 0.00 | 92 | 1019.5 |
| 20260507135518 | 58 | 200 | 0.0 | 1.7 | 0.00 | 0.00 | 0.00 | 92 | 1019.5 |
| 20260507134518 | 58 | 200 | 0.0 | 1.7 | 0.00 | 0.00 | 0.00 | 92 | 1019.6 |
| 20260507133519 | 58 | 200 | 0.0 | 0.9 | 0.00 | 0.00 | 0.00 | 92 | 1019.8 |
| 20260507132516 | 58 | 0.0 | 0.0 | 0.00 | 0.00 | 0.00 | 92 | 1019.9 | |
| 20260507131516 | 59 | 207 | 0.0 | 2.6 | 0.00 | 0.00 | 0.00 | 92 | 1020.1 |
| 20260507130520 | 59 | 197 | 0.0 | 2.6 | 0.00 | 0.00 | 0.00 | 91 | 1020.1 |
| 20260507125520 | 59 | 197 | 0.9 | 2.6 | 0.00 | 0.00 | 0.00 | 91 | 1020.1 |
| 20260507124519 | 60 | 209 | 0.0 | 1.7 | 0.00 | 0.00 | 0.00 | 91 | 1020.1 |
| 20260507123520 | 60 | 0.0 | 0.0 | 0.00 | 0.00 | 0.00 | 91 | 1020.1 | |
| 20260507122517 | 60 | 0.0 | 0.0 | 0.00 | 0.00 | 0.00 | 90 | 1020.2 | |
| 20260507121517 | 61 | 186 | 0.0 | 1.7 | 0.00 | 0.00 | 0.00 | 90 | 1020.3 |
| 20260507120520 | 61 | 185 | 0.0 | 0.9 | 0.00 | 0.00 | 0.00 | 90 | 1020.2 |
| 20260507115520 | 61 | 188 | 0.0 | 0.9 | 0.00 | 0.00 | 0.00 | 89 | 1020.3 |
| 20260507114537 | 62 | 0.0 | 0.0 | 0.00 | 0.00 | 0.00 | 89 | 1020.4 | |
| 20260507113517 | 62 | 196 | 0.0 | 0.9 | 0.00 | 0.00 | 0.00 | 89 | 1020.5 |
| 20260507112517 | 63 | 151 | 0.0 | 0.0 | 0.00 | 0.00 | 0.00 | 89 | 1020.6 |
| 20260507111520 | 63 | 139 | 0.0 | 1.7 | 0.00 | 0.00 | 0.00 | 88 | 1020.7 |
| 20260507110623 | 64 | 47 | 0.0 | 1.7 | 0.00 | 0.00 | 0.00 | 88 | 1020.7 |
| 20260507105517 | 64 | 338 | 0.0 | 1.7 | 0.00 | 0.00 | 0.00 | 88 | 1020.8 |
| 20260507104517 | 64 | 8 | 0.9 | 2.6 | 0.00 | 0.00 | 0.00 | 88 | 1020.9 |
| 20260507103518 | 64 | 352 | 0.9 | 3.5 | 0.00 | 0.00 | 0.00 | 88 | 1020.9 |
| 20260507102519 | 64 | 359 | 0.0 | 1.7 | 0.00 | 0.00 | 0.00 | 87 | 1021.0 |
| 20260507101518 | 65 | 13 | 0.9 | 2.6 | 0.00 | 0.00 | 0.00 | 87 | 1021.0 |
| 20260507100539 | 65 | 4 | 0.9 | 3.5 | 0.00 | 0.00 | 0.00 | 86 | 1021.1 |
| 20260507095559 | 65 | 355 | 0.9 | 3.5 | 0.00 | 0.00 | 0.00 | 86 | 1021.1 |
| 20260507094519 | 65 | 1 | 1.7 | 4.3 | 0.00 | 0.00 | 0.00 | 86 | 1021.1 |
| 20260507093519 | 65 | 344 | 1.7 | 6.1 | 0.00 | 0.00 | 0.00 | 86 | 1021.0 |
| 20260507092539 | 65 | 356 | 2.6 | 5.2 | 0.00 | 0.00 | 0.00 | 86 | 1020.8 |
| 20260507091516 | 65 | 357 | 2.6 | 5.2 | 0.00 | 0.00 | 0.00 | 86 | 1020.7 |
| 20260507090520 | 65 | 348 | 2.6 | 7.0 | 0.00 | 0.00 | 0.00 | 86 | 1020.6 |
| 20260507085519 | 65 | 2 | 2.6 | 6.1 | 0.00 | 0.00 | 0.00 | 87 | 1020.4 |
| 20260507084520 | 65 | 7 | 2.6 | 6.1 | 0.00 | 0.00 | 0.00 | 87 | 1020.4 |
| 20260507083520 | 65 | 4 | 1.7 | 3.5 | 0.00 | 0.00 | 0.00 | 87 | 1020.2 |
| 20260507082521 | 65 | 358 | 2.6 | 6.1 | 0.00 | 0.00 | 0.00 | 87 | 1020.1 |
| 20260507081518 | 64 | 9 | 2.6 | 5.2 | 0.00 | 0.00 | 0.00 | 87 | 1020.3 |
| 20260507080520 | 64 | 5 | 1.7 | 6.1 | 0.00 | 0.00 | 0.00 | 87 | 1020.5 |
| 20260507075540 | 64 | 360 | 1.7 | 3.5 | 0.00 | 0.00 | 0.00 | 87 | 1020.6 |
| 20260507074538 | 64 | 12 | 1.7 | 3.5 | 0.00 | 0.00 | 0.00 | 87 | 1020.7 |
| 20260507073518 | 64 | 7 | 1.7 | 5.2 | 0.00 | 0.00 | 0.00 | 87 | 1020.7 |
| 20260507072518 | 65 | 2 | 0.9 | 3.5 | 0.00 | 0.00 | 0.00 | 86 | 1020.8 |
| 20260507071520 | 65 | 6 | 0.9 | 3.5 | 0.00 | 0.00 | 0.00 | 85 | 1020.9 |
| 20260507070521 | 65 | 11 | 0.9 | 2.6 | 0.00 | 0.00 | 0.00 | 85 | 1021.1 |
| 20260507065518 | 65 | 4 | 1.7 | 4.3 | 0.00 | 0.00 | 0.00 | 85 | 1021.1 |
| 20260507064518 | 66 | 9 | 1.7 | 4.3 | 0.00 | 0.00 | 0.00 | 84 | 1021.2 |
| 20260507063518 | 66 | 358 | 1.7 | 4.3 | 0.00 | 0.00 | 0.00 | 84 | 1021.2 |
| 20260507062540 | 66 | 5 | 1.7 | 4.3 | 0.00 | 0.00 | 0.00 | 83 | 1021.2 |
| 20260507061519 | 66 | 8 | 1.7 | 5.2 | 0.00 | 0.00 | 0.00 | 83 | 1021.2 |
| 20260507060518 | 66 | 11 | 1.7 | 5.2 | 0.00 | 0.00 | 0.00 | 83 | 1021.2 |
| 20260507055523 | 66 | 354 | 2.6 | 5.2 | 0.00 | 0.00 | 0.00 | 82 | 1021.3 |
| 20260507054519 | 66 | 9 | 1.7 | 3.5 | 0.00 | 0.00 | 0.00 | 82 | 1021.3 |
| 20260507053519 | 66 | 14 | 1.7 | 4.3 | 0.00 | 0.00 | 0.00 | 81 | 1021.3 |
| 20260507052520 | 66 | 3 | 1.7 | 5.2 | 0.00 | 0.00 | 0.00 | 81 | 1021.2 |
| 20260507051517 | 67 | 359 | 1.7 | 4.3 | 0.00 | 0.00 | 0.00 | 80 | 1021.3 |
| 20260507050519 | 67 | 9 | 3.5 | 7.8 | 0.00 | 0.00 | 0.00 | 79 | 1021.3 |
| 20260507045519 | 67 | 11 | 2.6 | 7.0 | 0.00 | 0.00 | 0.00 | 78 | 1021.4 |
| 20260507044519 | 67 | 347 | 2.6 | 6.1 | 0.00 | 0.00 | 0.00 | 78 | 1021.4 |
| 20260507043516 | 68 | 11 | 2.6 | 6.1 | 0.00 | 0.00 | 0.00 | 78 | 1021.4 |
| 20260507042540 | 68 | 18 | 2.6 | 5.2 | 0.00 | 0.00 | 0.00 | 78 | 1021.4 |
| 20260507041519 | 68 | 15 | 3.5 | 7.0 | 0.00 | 0.00 | 0.00 | 78 | 1021.5 |
| 20260507040540 | 68 | 7 | 3.5 | 7.0 | 0.00 | 0.00 | 0.00 | 78 | 1021.6 |
| 20260507035520 | 68 | 19 | 3.5 | 7.8 | 0.00 | 0.00 | 0.00 | 78 | 1021.5 |
| 20260507034521 | 68 | 10 | 3.5 | 7.0 | 0.00 | 0.00 | 0.00 | 78 | 1021.7 |
| 20260507033518 | 68 | 18 | 3.5 | 9.6 | 0.00 | 0.00 | 0.00 | 78 | 1021.6 |
| 20260507032518 | 68 | 21 | 4.3 | 8.7 | 0.00 | 0.00 | 0.00 | 78 | 1021.6 |
| 20260507031517 | 68 | 18 | 3.5 | 7.8 | 0.00 | 0.00 | 0.00 | 78 | 1021.7 |
| 20260507030520 | 68 | 359 | 2.6 | 7.0 | 0.00 | 0.00 | 0.00 | 78 | 1021.7 |
| 20260507025518 | 68 | 3 | 3.5 | 7.0 | 0.00 | 0.00 | 0.00 | 78 | 1021.8 |
| 20260507024517 | 69 | 17 | 2.6 | 7.8 | 0.00 | 0.00 | 0.00 | 78 | 1021.8 |
| 20260507023518 | 69 | 360 | 3.5 | 7.8 | 0.00 | 0.00 | 0.00 | 78 | 1021.9 |
| 20260507022519 | 69 | 348 | 4.3 | 9.6 | 0.00 | 0.00 | 0.00 | 77 | 1022.0 |
| 20260507021519 | 69 | 14 | 4.3 | 8.7 | 0.00 | 0.00 | 0.00 | 77 | 1022.1 |
| 20260507020538 | 70 | 7 | 4.3 | 8.7 | 0.00 | 0.00 | 0.00 | 76 | 1022.1 |
| 20260507015518 | 71 | 9 | 4.3 | 8.7 | 0.00 | 0.00 | 0.00 | 76 | 1022.2 |
| 20260507014539 | 70 | 15 | 3.5 | 7.8 | 0.00 | 0.00 | 0.00 | 76 | 1022.2 |
| 20260507013519 | 69 | 16 | 3.5 | 7.8 | 0.00 | 0.00 | 0.00 | 77 | 1022.3 |
| 20260507012518 | 70 | 6 | 3.5 | 9.6 | 0.00 | 0.00 | 0.00 | 75 | 1022.4 |
| 20260507011516 | 71 | 13 | 4.3 | 11.3 | 0.00 | 0.00 | 0.00 | 75 | 1022.5 |
| 20260507010519 | 71 | 16 | 2.6 | 9.6 | 0.00 | 0.00 | 0.00 | 75 | 1022.6 |
| 20260507005519 | 70 | 13 | 3.5 | 7.0 | 0.00 | 0.00 | 0.00 | 76 | 1022.8 |
| 20260507004520 | 71 | 10 | 4.3 | 8.7 | 0.00 | 0.00 | 0.00 | 75 | 1022.8 |
| 20260507003519 | 71 | 19 | 4.3 | 7.8 | 0.00 | 0.00 | 0.00 | 74 | 1023.0 |
| 20260507002521 | 70 | 2 | 4.3 | 9.6 | 0.00 | 0.00 | 0.00 | 72 | 1023.1 |
| 20260507001519 | 70 | 3 | 4.3 | 9.6 | 0.00 | 0.00 | 0.00 | 69 | 1023.2 |
| 20260507000521 | 70 | 352 | 5.2 | 9.6 | 0.00 | 0.01 | 0.00 | 70 | 1023.1 |
| 20260506235520 | 70 | 9 | 4.3 | 8.7 | 0.00 | 0.01 | 0.00 | 72 | 1023.0 |
| 20260506234540 | 70 | 6 | 2.6 | 6.1 | 0.00 | 0.01 | 0.00 | 72 | 1023.1 |
| 20260506233520 | 70 | 11 | 4.3 | 8.7 | 0.00 | 0.01 | 0.00 | 73 | 1023.1 |
| 20260506232521 | 70 | 359 | 3.5 | 7.0 | 0.00 | 0.01 | 0.00 | 74 | 1023.3 |
| 20260506231520 | 70 | 9 | 4.3 | 8.7 | 0.00 | 0.01 | 0.00 | 73 | 1023.3 |
| 20260506230520 | 69 | 359 | 3.5 | 7.8 | 0.00 | 0.01 | 0.00 | 73 | 1023.5 |
| 20260506225518 | 69 | 349 | 4.3 | 8.7 | 0.00 | 0.01 | 0.00 | 73 | 1023.6 |
| 20260506224519 | 69 | 1 | 2.6 | 6.1 | 0.00 | 0.01 | 0.00 | 72 | 1023.6 |
| 20260506223521 | 69 | 16 | 3.5 | 8.7 | 0.00 | 0.01 | 0.00 | 72 | 1023.6 |
| 20260506222541 | 69 | 8 | 3.5 | 8.7 | 0.00 | 0.01 | 0.00 | 72 | 1023.6 |
| 20260506221521 | 69 | 15 | 2.6 | 6.1 | 0.00 | 0.03 | 0.00 | 72 | 1023.7 |
| 20260506220518 | 69 | 4 | 2.6 | 5.2 | 0.00 | 0.03 | 0.00 | 73 | 1023.7 |
| 20260506215518 | 68 | 24 | 2.6 | 7.8 | 0.00 | 0.03 | 0.00 | 74 | 1023.7 |
| 20260506214519 | 67 | 25 | 1.7 | 4.3 | 0.00 | 0.03 | 0.00 | 78 | 1024.0 |
| 20260506213538 | 66 | 23 | 2.6 | 5.2 | 0.00 | 0.03 | 0.00 | 82 | 1024.1 |
| 20260506212538 | 64 | 357 | 2.6 | 6.1 | 0.00 | 0.03 | 0.00 | 90 | 1024.3 |
| 20260506211519 | 63 | 358 | 1.7 | 4.3 | 0.00 | 0.03 | 0.00 | 94 | 1024.5 |
| 20260506210519 | 62 | 359 | 1.7 | 4.3 | 0.00 | 0.03 | 0.00 | 95 | 1024.5 |
| 20260506205541 | 61 | 9 | 0.9 | 5.2 | 0.00 | 0.03 | 0.00 | 96 | 1024.5 |
| 20260506204518 | 60 | 249 | 0.0 | 0.9 | 0.00 | 0.03 | 0.00 | 96 | 1024.5 |
| 20260506203526 | 58 | 162 | 0.0 | 0.9 | 0.00 | 0.03 | 0.00 | 96 | 1024.6 |
| 20260506202525 | 57 | 184 | 0.0 | 0.9 | 0.00 | 0.03 | 0.00 | 95 | 1024.6 |
| 20260506201526 | 56 | 0.0 | 0.0 | 0.00 | 0.03 | 0.00 | 95 | 1024.6 | |
| 20260506200545 | 55 | 0.0 | 0.0 | 0.00 | 0.03 | 0.00 | 95 | 1024.5 | |
| 20260506195525 | 54 | 0.0 | 0.0 | 0.00 | 0.03 | 0.00 | 95 | 1024.6 | |
| 20260506194526 | 54 | 0.0 | 0.0 | 0.00 | 0.03 | 0.00 | 95 | 1024.6 | |
| 20260506193526 | 54 | 212 | 0.0 | 0.0 | 0.00 | 0.03 | 0.00 | 95 | 1024.5 |
| 20260506192526 | 54 | 0.0 | 0.0 | 0.00 | 0.03 | 0.00 | 95 | 1024.5 | |
| 20260506191526 | 54 | 0.0 | 0.0 | 0.00 | 0.03 | 0.00 | 95 | 1024.5 | |
| 20260506190546 | 54 | 188 | 0.0 | 0.0 | 0.00 | 0.03 | 0.00 | 95 | 1024.4 |
| 20260506185526 | 55 | 0.0 | 0.0 | 0.00 | 0.03 | 0.00 | 95 | 1024.4 | |
| 20260506184546 | 55 | 214 | 0.0 | 0.9 | 0.00 | 0.03 | 0.00 | 95 | 1024.5 |
| 20260506183528 | 55 | 199 | 0.0 | 0.9 | 0.00 | 0.03 | 0.00 | 95 | 1024.5 |
| 20260506182527 | 56 | 194 | 0.0 | 1.7 | 0.00 | 0.03 | 0.00 | 95 | 1024.4 |
| 20260506181527 | 56 | 178 | 0.0 | 0.9 | 0.00 | 0.03 | 0.00 | 95 | 1024.3 |
| 20260506180528 | 56 | 176 | 0.0 | 0.9 | 0.00 | 0.03 | 0.00 | 94 | 1024.3 |
| 20260506175527 | 57 | 261 | 0.0 | 0.0 | 0.00 | 0.03 | 0.00 | 94 | 1024.3 |
| 20260506174527 | 58 | 0.0 | 0.0 | 0.00 | 0.03 | 0.00 | 94 | 1024.4 | |
| 20260506173527 | 58 | 220 | 0.9 | 2.6 | 0.00 | 0.03 | 0.00 | 94 | 1024.5 |
| 20260506172527 | 58 | 177 | 0.0 | 1.7 | 0.00 | 0.03 | 0.00 | 94 | 1024.4 |
| 20260506171528 | 58 | 185 | 0.0 | 0.9 | 0.00 | 0.03 | 0.00 | 94 | 1024.4 |
| 20260506170527 | 58 | 171 | 0.0 | 0.9 | 0.00 | 0.03 | 0.00 | 94 | 1024.4 |